Le Ponant — FGZZ — position and weather

sailwx.info

Track history (hours):
 
Tides and Currents Weather Stations Pressure Air Temp Water Temp Dewpoint Dewpoint Depression Visibility Wind Speed Wind Dir Waves Ship Positions

Le Ponant

Operator: Compangy des Iles du Ponant

Last reported at 2014-Oct-25 09:06 UTC. Time now 2014-Oct-25 14:27 UTC.
Position N 43°19' E 005°22'.

Length 84 m; draft 4.2 m.

Type: Passenger vessel. MMSI: 227186000.

Date/timePositionNaut miles runAvg speedWind from/ knotsBaromVisibWave heightAir tempDewpointWater temp
2014-Oct-25 09:06N 43°19' E 005°22'0 0.0
2014-Oct-25 08:24N 43°19' E 005°22'0 0.0
2014-Oct-25 07:18N 43°19' E 005°22'0 0.0
2014-Oct-25 06:30N 43°19' E 005°22'2 1.8
2014-Oct-25 05:30N 43°18' E 005°21'7 6.1
2014-Oct-25 04:22N 43°11' E 005°21'58 8.0
2014-Oct-24 21:04N 43°06' E 006°40'510.7
2014-Oct-24 20:33N 43°10' E 006°45'1110.7
2014-Oct-24 19:33N 43°19' E 006°54'1010.4
2014-Oct-24 18:33N 43°27' E 007°03'1110.7
2014-Oct-24 17:33N 43°35' E 007°12'7 1.8
2014-Oct-24 13:32N 43°42' E 007°17'0 0.0
2014-Oct-24 12:32N 43°42' E 007°17'0 0.0
2014-Oct-24 11:32N 43°42' E 007°17'0 0.0
2014-Oct-24 10:32N 43°42' E 007°17'0 0.0
2014-Oct-24 09:32N 43°42' E 007°17'0 0.0
2014-Oct-24 08:32N 43°42' E 007°17'0 0.0
2014-Oct-24 07:32N 43°42' E 007°17'0 0.0
2014-Oct-24 06:32N 43°42' E 007°17'0 0.4
2014-Oct-24 05:33N 43°41' E 007°17'8 8.2
2014-Oct-24 04:33N 43°33' E 007°21'9 8.8
2014-Oct-24 03:33N 43°25' E 007°17'7 7.4
2014-Oct-24 02:33N 43°18' E 007°16'11 7.6
2014-Oct-24 01:07N 43°07' E 007°16'  
2014-Oct-20 19:32N 42°11' E 008°17'32 1.4
2014-Oct-19 21:04N 42°35' E 008°46'22 1.3
2014-Oct-19 03:34N 42°51' E 008°25'7 7.2
2014-Oct-19 02:34N 42°56' E 008°18'7 6.7
2014-Oct-19 01:33N 43°00' E 008°12'13 6.4
2014-Oct-18 23:32N 43°10' E 007°59'13 6.5
2014-Oct-18 21:33N 43°19' E 007°47'7 7.0
2014-Oct-18 20:33N 43°24' E 007°41'7 7.4
2014-Oct-18 19:33N 43°29' E 007°33'7 7.1
2014-Oct-18 18:33N 43°34' E 007°26'7 7.3
2014-Oct-18 17:33N 43°40' E 007°20'2 2.4
2014-Oct-18 16:31N 43°42' E 007°17'0 0.0
2014-Oct-18 15:31N 43°42' E 007°17'0 0.0
2014-Oct-18 14:31N 43°42' E 007°17'0 0.0
2014-Oct-18 13:31N 43°42' E 007°17'0 0.0
2014-Oct-18 12:31N 43°42' E 007°17'0 0.0
2014-Oct-18 11:25N 43°42' E 007°17'0 0.0
2014-Oct-18 10:31N 43°42' E 007°17'0 0.0
2014-Oct-18 09:31N 43°42' E 007°17'0 0.0
2014-Oct-18 08:31N 43°42' E 007°17'0 0.0
2014-Oct-18 07:31N 43°42' E 007°17'0 0.0
2014-Oct-18 06:31N 43°42' E 007°17'0 0.5
2014-Oct-18 05:33N 43°41' E 007°17'46 7.6
2014-Oct-17 23:32N 43°26' E 008°17'8 7.7
2014-Oct-17 22:29N 43°23' E 008°28'9 9.0
2014-Oct-17 21:32N 43°21' E 008°39'1110.1
2014-Oct-17 20:24N 43°18' E 008°54'8 9.8
2014-Oct-17 19:32N 43°17' E 009°06'10 9.8
2014-Oct-17 18:33N 43°15' E 009°19'10 9.3
2014-Oct-17 17:29N 43°14' E 009°32'11 9.8
2014-Oct-17 16:21N 43°11' E 009°47'810.3
2014-Oct-17 15:33N 43°08' E 009°57'1211.6
2014-Oct-17 14:34N 42°59' E 010°08'1211.6
2014-Oct-17 13:33N 42°51' E 010°19'2 0.3
2014-Oct-17 06:05N 42°49' E 010°20'6 6.8
2014-Oct-17 05:10N 42°52' E 010°13'7 8.1
2014-Oct-17 04:15N 42°51' E 010°03'  
Track history (hours):
 
Tides and Currents Weather Stations Pressure Air Temp Water Temp Dewpoint Dewpoint Depression Visibility Wind Speed Wind Dir Waves Ship Positions

Le Ponant

Operator: Compangy des Iles du Ponant

Last reported at 2014-Oct-25 09:06 UTC. Time now 2014-Oct-25 14:27 UTC.
Position N 43°19' E 005°22'.

Length 84 m; draft 4.2 m.

Type: Passenger vessel. MMSI: 227186000.

Date/timePositionNaut miles runAvg speedWind from/ knotsBaromVisibWave heightAir tempDewpointWater temp
2014-Oct-25 09:06N 43°19' E 005°22'0 0.0
2014-Oct-25 08:24N 43°19' E 005°22'0 0.0
2014-Oct-25 07:18N 43°19' E 005°22'0 0.0
2014-Oct-25 06:30N 43°19' E 005°22'2 1.8
2014-Oct-25 05:30N 43°18' E 005°21'7 6.1
2014-Oct-25 04:22N 43°11' E 005°21'58 8.0
2014-Oct-24 21:04N 43°06' E 006°40'510.7
2014-Oct-24 20:33N 43°10' E 006°45'1110.7
2014-Oct-24 19:33N 43°19' E 006°54'1010.4
2014-Oct-24 18:33N 43°27' E 007°03'1110.7
2014-Oct-24 17:33N 43°35' E 007°12'7 1.8
2014-Oct-24 13:32N 43°42' E 007°17'0 0.0
2014-Oct-24 12:32N 43°42' E 007°17'0 0.0
2014-Oct-24 11:32N 43°42' E 007°17'0 0.0
2014-Oct-24 10:32N 43°42' E 007°17'0 0.0
2014-Oct-24 09:32N 43°42' E 007°17'0 0.0
2014-Oct-24 08:32N 43°42' E 007°17'0 0.0
2014-Oct-24 07:32N 43°42' E 007°17'0 0.0
2014-Oct-24 06:32N 43°42' E 007°17'0 0.4
2014-Oct-24 05:33N 43°41' E 007°17'8 8.2
2014-Oct-24 04:33N 43°33' E 007°21'9 8.8
2014-Oct-24 03:33N 43°25' E 007°17'7 7.4
2014-Oct-24 02:33N 43°18' E 007°16'11 7.6
2014-Oct-24 01:07N 43°07' E 007°16'  
2014-Oct-20 19:32N 42°11' E 008°17'32 1.4
2014-Oct-19 21:04N 42°35' E 008°46'22 1.3
2014-Oct-19 03:34N 42°51' E 008°25'7 7.2
2014-Oct-19 02:34N 42°56' E 008°18'7 6.7
2014-Oct-19 01:33N 43°00' E 008°12'13 6.4
2014-Oct-18 23:32N 43°10' E 007°59'13 6.5
2014-Oct-18 21:33N 43°19' E 007°47'7 7.0
2014-Oct-18 20:33N 43°24' E 007°41'7 7.4
2014-Oct-18 19:33N 43°29' E 007°33'7 7.1
2014-Oct-18 18:33N 43°34' E 007°26'7 7.3
2014-Oct-18 17:33N 43°40' E 007°20'2 2.4
2014-Oct-18 16:31N 43°42' E 007°17'0 0.0
2014-Oct-18 15:31N 43°42' E 007°17'0 0.0
2014-Oct-18 14:31N 43°42' E 007°17'0 0.0
2014-Oct-18 13:31N 43°42' E 007°17'0 0.0
2014-Oct-18 12:31N 43°42' E 007°17'0 0.0
2014-Oct-18 11:25N 43°42' E 007°17'0 0.0
2014-Oct-18 10:31N 43°42' E 007°17'0 0.0
2014-Oct-18 09:31N 43°42' E 007°17'0 0.0
2014-Oct-18 08:31N 43°42' E 007°17'0 0.0
2014-Oct-18 07:31N 43°42' E 007°17'0 0.0
2014-Oct-18 06:31N 43°42' E 007°17'0 0.5
2014-Oct-18 05:33N 43°41' E 007°17'46 7.6
2014-Oct-17 23:32N 43°26' E 008°17'8 7.7
2014-Oct-17 22:29N 43°23' E 008°28'9 9.0
2014-Oct-17 21:32N 43°21' E 008°39'1110.1
2014-Oct-17 20:24N 43°18' E 008°54'8 9.8
2014-Oct-17 19:32N 43°17' E 009°06'10 9.8
2014-Oct-17 18:33N 43°15' E 009°19'10 9.3
2014-Oct-17 17:29N 43°14' E 009°32'11 9.8
2014-Oct-17 16:21N 43°11' E 009°47'810.3
2014-Oct-17 15:33N 43°08' E 009°57'1211.6
2014-Oct-17 14:34N 42°59' E 010°08'1211.6
2014-Oct-17 13:33N 42°51' E 010°19'2 0.3
2014-Oct-17 06:05N 42°49' E 010°20'6 6.8
2014-Oct-17 05:10N 42°52' E 010°13'7 8.1
2014-Oct-17 04:15N 42°51' E 010°03'  

Dump ship's entire track history